owner,sensor,date,latitude,longitude,vertical_datum,sea_water_temperature,qcFlag 
COMPS,ioos:station:USF.COMPS:C10:1,2010-04-02T14:40:00Z,27.1690,-82.9260,-1.0,17.55,2 
COMPS,ioos:station:USF.COMPS:C10:1,2010-04-02T15:00:00Z,27.1690,-82.9260,-1.0,17.48,2 
COMPS,ioos:station:USF.COMPS:C10:1,2010-04-02T15:40:00Z,27.1690,-82.9260,-1.0,17.47,2 
COMPS,ioos:station:USF.COMPS:C10:1,2010-04-02T16:00:00Z,27.1690,-82.9260,-1.0,17.45,2 
COMPS,ioos:station:USF.COMPS:C10:1,2010-04-02T16:20:00Z,27.1690,-82.9260,-1.0,17.43,2 
COMPS,ioos:station:USF.COMPS:C10:1,2010-04-02T16:40:00Z,27.1690,-82.9260,-1.0,17.37,2 
COMPS,ioos:station:USF.COMPS:C10:1,2010-04-02T17:00:00Z,27.1690,-82.9260,-1.0,17.32,2 
COMPS,ioos:station:USF.COMPS:C10:1,2010-04-02T17:20:00Z,27.1690,-82.9260,-1.0,17.33,2 
COMPS,ioos:station:USF.COMPS:C10:1,2010-04-02T17:40:00Z,27.1690,-82.9260,-1.0,17.38,2 
COMPS,ioos:station:USF.COMPS:C10:1,2010-04-02T18:00:00Z,27.1690,-82.9260,-1.0,17.56,2 
COMPS,ioos:station:USF.COMPS:C10:1,2010-04-02T18:20:00Z,27.1690,-82.9260,-1.0,17.58,2 
COMPS,ioos:station:USF.COMPS:C10:1,2010-04-02T18:40:00Z,27.1690,-82.9260,-1.0,17.51,2 
COMPS,ioos:station:USF.COMPS:C10:1,2010-04-02T19:00:00Z,27.1690,-82.9260,-1.0,17.42,2 
COMPS,ioos:station:USF.COMPS:C10:1,2010-04-02T19:20:00Z,27.1690,-82.9260,-1.0,17.36,2 
COMPS,ioos:station:USF.COMPS:C10:1,2010-04-02T19:40:00Z,27.1690,-82.9260,-1.0,17.34,2 
COMPS,ioos:station:USF.COMPS:C10:1,2010-04-02T20:00:00Z,27.1690,-82.9260,-1.0,17.48,2 
COMPS,ioos:station:USF.COMPS:C10:1,2010-04-02T20:20:00Z,27.1690,-82.9260,-1.0,17.57,2 
COMPS,ioos:station:USF.COMPS:C10:1,2010-04-02T20:40:00Z,27.1690,-82.9260,-1.0,17.61,2 
COMPS,ioos:station:USF.COMPS:C10:1,2010-04-02T21:00:00Z,27.1690,-82.9260,-1.0,17.54,2 
COMPS,ioos:station:USF.COMPS:C10:1,2010-04-02T21:20:00Z,27.1690,-82.9260,-1.0,17.6,2 
COMPS,ioos:station:USF.COMPS:C10:1,2010-04-02T21:40:00Z,27.1690,-82.9260,-1.0,17.59,2 
COMPS,ioos:station:USF.COMPS:C10:1,2010-04-02T22:00:00Z,27.1690,-82.9260,-1.0,17.45,2 
COMPS,ioos:station:USF.COMPS:C10:1,2010-04-02T22:20:00Z,27.1690,-82.9260,-1.0,17.41,2 
COMPS,ioos:station:USF.COMPS:C10:1,2010-04-02T22:40:00Z,27.1690,-82.9260,-1.0,17.5,2 
COMPS,ioos:station:USF.COMPS:C10:1,2010-04-02T23:00:00Z,27.1690,-82.9260,-1.0,17.55,2 
COMPS,ioos:station:USF.COMPS:C10:1,2010-04-02T23:20:00Z,27.1690,-82.9260,-1.0,17.6,2 
COMPS,ioos:station:USF.COMPS:C10:1,2010-04-02T23:40:00Z,27.1690,-82.9260,-1.0,17.5,2 
COMPS,ioos:station:USF.COMPS:C10:1,2010-04-03T00:00:00Z,27.1690,-82.9260,-1.0,17.5,2 
COMPS,ioos:station:USF.COMPS:C10:1,2010-04-03T00:20:00Z,27.1690,-82.9260,-1.0,17.36,2 
COMPS,ioos:station:USF.COMPS:C10:1,2010-04-03T00:40:00Z,27.1690,-82.9260,-1.0,17.44,2 
COMPS,ioos:station:USF.COMPS:C10:1,2010-04-03T01:00:00Z,27.1690,-82.9260,-1.0,17.46,2 
COMPS,ioos:station:USF.COMPS:C10:1,2010-04-03T01:20:00Z,27.1690,-82.9260,-1.0,17.44,2 
COMPS,ioos:station:USF.COMPS:C10:1,2010-04-03T01:40:00Z,27.1690,-82.9260,-1.0,17.45,2 
COMPS,ioos:station:USF.COMPS:C10:1,2010-04-03T02:00:00Z,27.1690,-82.9260,-1.0,17.43,2 
COMPS,ioos:station:USF.COMPS:C10:1,2010-04-03T02:20:00Z,27.1690,-82.9260,-1.0,17.46,2 
COMPS,ioos:station:USF.COMPS:C10:1,2010-04-03T02:40:00Z,27.1690,-82.9260,-1.0,17.47,2 
COMPS,ioos:station:USF.COMPS:C10:1,2010-04-03T03:00:00Z,27.1690,-82.9260,-1.0,17.45,2 
COMPS,ioos:station:USF.COMPS:C10:1,2010-04-03T03:20:00Z,27.1690,-82.9260,-1.0,17.42,2 
COMPS,ioos:station:USF.COMPS:C10:1,2010-04-03T03:40:00Z,27.1690,-82.9260,-1.0,17.38,2 
COMPS,ioos:station:USF.COMPS:C10:1,2010-04-03T04:00:00Z,27.1690,-82.9260,-1.0,17.33,2 
COMPS,ioos:station:USF.COMPS:C10:1,2010-04-03T04:20:00Z,27.1690,-82.9260,-1.0,17.34,2 
COMPS,ioos:station:USF.COMPS:C10:1,2010-04-03T04:40:00Z,27.1690,-82.9260,-1.0,17.31,2 
COMPS,ioos:station:USF.COMPS:C10:1,2010-04-03T05:00:00Z,27.1690,-82.9260,-1.0,17.3,2 
COMPS,ioos:station:USF.COMPS:C10:1,2010-04-03T05:20:00Z,27.1690,-82.9260,-1.0,17.34,2 
COMPS,ioos:station:USF.COMPS:C10:1,2010-04-03T05:40:00Z,27.1690,-82.9260,-1.0,17.38,2 
COMPS,ioos:station:USF.COMPS:C10:1,2010-04-03T06:00:00Z,27.1690,-82.9260,-1.0,17.41,2 
COMPS,ioos:station:USF.COMPS:C10:1,2010-04-03T06:20:00Z,27.1690,-82.9260,-1.0,17.46,2 
COMPS,ioos:station:USF.COMPS:C10:1,2010-04-03T06:40:00Z,27.1690,-82.9260,-1.0,17.51,2 
COMPS,ioos:station:USF.COMPS:C10:1,2010-04-03T07:00:00Z,27.1690,-82.9260,-1.0,17.75,2 
COMPS,ioos:station:USF.COMPS:C10:1,2010-04-03T07:20:00Z,27.1690,-82.9260,-1.0,18.1,2 
COMPS,ioos:station:USF.COMPS:C10:1,2010-04-03T07:40:00Z,27.1690,-82.9260,-1.0,18.16,2 
COMPS,ioos:station:USF.COMPS:C10:1,2010-04-03T08:00:00Z,27.1690,-82.9260,-1.0,18.24,2 
COMPS,ioos:station:USF.COMPS:C10:1,2010-04-03T08:20:00Z,27.1690,-82.9260,-1.0,18.24,2 
COMPS,ioos:station:USF.COMPS:C10:1,2010-04-03T08:40:00Z,27.1690,-82.9260,-1.0,18.1,2 
COMPS,ioos:station:USF.COMPS:C10:1,2010-04-03T09:00:00Z,27.1690,-82.9260,-1.0,18.11,2 
COMPS,ioos:station:USF.COMPS:C10:1,2010-04-03T09:20:00Z,27.1690,-82.9260,-1.0,18.17,2 
COMPS,ioos:station:USF.COMPS:C10:1,2010-04-03T09:40:00Z,27.1690,-82.9260,-1.0,18.18,2 
COMPS,ioos:station:USF.COMPS:C10:1,2010-04-03T10:00:00Z,27.1690,-82.9260,-1.0,18.03,2 
COMPS,ioos:station:USF.COMPS:C10:1,2010-04-03T10:20:00Z,27.1690,-82.9260,-1.0,18.05,2 
COMPS,ioos:station:USF.COMPS:C10:1,2010-04-03T10:40:00Z,27.1690,-82.9260,-1.0,18.16,2 
COMPS,ioos:station:USF.COMPS:C10:1,2010-04-03T11:00:00Z,27.1690,-82.9260,-1.0,18.2,2 
COMPS,ioos:station:USF.COMPS:C10:1,2010-04-03T11:20:00Z,27.1690,-82.9260,-1.0,18.21,2 
COMPS,ioos:station:USF.COMPS:C10:1,2010-04-03T11:40:00Z,27.1690,-82.9260,-1.0,18.21,2 
COMPS,ioos:station:USF.COMPS:C10:1,2010-04-03T12:00:00Z,27.1690,-82.9260,-1.0,18.16,2 
COMPS,ioos:station:USF.COMPS:C10:1,2010-04-03T12:20:00Z,27.1690,-82.9260,-1.0,18.18,2 
COMPS,ioos:station:USF.COMPS:C10:1,2010-04-03T12:40:00Z,27.1690,-82.9260,-1.0,18.19,2 
COMPS,ioos:station:USF.COMPS:C10:1,2010-04-03T13:00:00Z,27.1690,-82.9260,-1.0,18.17,2 
COMPS,ioos:station:USF.COMPS:C10:1,2010-04-03T13:20:00Z,27.1690,-82.9260,-1.0,18.1,2 
COMPS,ioos:station:USF.COMPS:C10:1,2010-04-03T13:40:00Z,27.1690,-82.9260,-1.0,18.07,2 
COMPS,ioos:station:USF.COMPS:C10:1,2010-04-03T14:00:00Z,27.1690,-82.9260,-1.0,18.02,2 
COMPS,ioos:station:USF.COMPS:C10:1,2010-04-03T14:20:00Z,27.1690,-82.9260,-1.0,18.0,2 
COMPS,ioos:station:USF.COMPS:C10:1,2010-04-03T14:40:00Z,27.1690,-82.9260,-1.0,17.91,2 
COMPS,ioos:station:USF.COMPS:C10:1,2010-04-03T15:00:00Z,27.1690,-82.9260,-1.0,17.9,2 
COMPS,ioos:station:USF.COMPS:C10:1,2010-04-03T15:20:00Z,27.1690,-82.9260,-1.0,17.95,2 
COMPS,ioos:station:USF.COMPS:C10:1,2010-04-03T15:40:00Z,27.1690,-82.9260,-1.0,18.0,2 
COMPS,ioos:station:USF.COMPS:C10:1,2010-04-03T16:00:00Z,27.1690,-82.9260,-1.0,17.95,2 
COMPS,ioos:station:USF.COMPS:C10:1,2010-04-03T16:20:00Z,27.1690,-82.9260,-1.0,17.83,2 
COMPS,ioos:station:USF.COMPS:C10:1,2010-04-03T16:40:00Z,27.1690,-82.9260,-1.0,17.86,2 
COMPS,ioos:station:USF.COMPS:C10:1,2010-04-03T17:00:00Z,27.1690,-82.9260,-1.0,17.76,2 
COMPS,ioos:station:USF.COMPS:C10:1,2010-04-03T17:20:00Z,27.1690,-82.9260,-1.0,17.71,2 
COMPS,ioos:station:USF.COMPS:C10:1,2010-04-03T17:40:00Z,27.1690,-82.9260,-1.0,17.72,2 
COMPS,ioos:station:USF.COMPS:C10:1,2010-04-03T18:00:00Z,27.1690,-82.9260,-1.0,17.8,2 
COMPS,ioos:station:USF.COMPS:C10:1,2010-04-03T18:20:00Z,27.1690,-82.9260,-1.0,17.74,2 
COMPS,ioos:station:USF.COMPS:C10:1,2010-04-03T18:40:00Z,27.1690,-82.9260,-1.0,17.68,2 
COMPS,ioos:station:USF.COMPS:C10:1,2010-04-03T19:00:00Z,27.1690,-82.9260,-1.0,17.7,2 
COMPS,ioos:station:USF.COMPS:C10:1,2010-04-03T19:20:00Z,27.1690,-82.9260,-1.0,17.82,2 
COMPS,ioos:station:USF.COMPS:C10:1,2010-04-03T19:40:00Z,27.1690,-82.9260,-1.0,17.83,2 
COMPS,ioos:station:USF.COMPS:C10:1,2010-04-03T20:00:00Z,27.1690,-82.9260,-1.0,17.9,2 
COMPS,ioos:station:USF.COMPS:C10:1,2010-04-03T20:20:00Z,27.1690,-82.9260,-1.0,17.9,2 
COMPS,ioos:station:USF.COMPS:C10:1,2010-04-03T20:40:00Z,27.1690,-82.9260,-1.0,17.91,2 
COMPS,ioos:station:USF.COMPS:C10:1,2010-04-03T21:00:00Z,27.1690,-82.9260,-1.0,17.92,2 
COMPS,ioos:station:USF.COMPS:C10:1,2010-04-03T21:20:00Z,27.1690,-82.9260,-1.0,17.86,2 
COMPS,ioos:station:USF.COMPS:C10:1,2010-04-03T21:40:00Z,27.1690,-82.9260,-1.0,17.85,2 
COMPS,ioos:station:USF.COMPS:C10:1,2010-04-03T22:00:00Z,27.1690,-82.9260,-1.0,17.89,2 
COMPS,ioos:station:USF.COMPS:C10:1,2010-04-03T22:20:00Z,27.1690,-82.9260,-1.0,18.04,2 
COMPS,ioos:station:USF.COMPS:C10:1,2010-04-03T22:40:00Z,27.1690,-82.9260,-1.0,18.03,2 
COMPS,ioos:station:USF.COMPS:C10:1,2010-04-03T23:00:00Z,27.1690,-82.9260,-1.0,18.2,2 
COMPS,ioos:station:USF.COMPS:C10:1,2010-04-03T23:20:00Z,27.1690,-82.9260,-1.0,18.06,2 
COMPS,ioos:station:USF.COMPS:C10:1,2010-04-03T23:40:00Z,27.1690,-82.9260,-1.0,18.06,2 
COMPS,ioos:station:USF.COMPS:C10:1,2010-04-04T00:00:00Z,27.1690,-82.9260,-1.0,18.19,2 
COMPS,ioos:station:USF.COMPS:C10:1,2010-04-04T00:20:00Z,27.1690,-82.9260,-1.0,17.96,2 
COMPS,ioos:station:USF.COMPS:C10:1,2010-04-04T00:40:00Z,27.1690,-82.9260,-1.0,17.78,2 
COMPS,ioos:station:USF.COMPS:C10:1,2010-04-04T01:00:00Z,27.1690,-82.9260,-1.0,17.66,2 
COMPS,ioos:station:USF.COMPS:C10:1,2010-04-04T01:20:00Z,27.1690,-82.9260,-1.0,17.56,2 
COMPS,ioos:station:USF.COMPS:C10:1,2010-04-04T01:40:00Z,27.1690,-82.9260,-1.0,17.49,2 
COMPS,ioos:station:USF.COMPS:C10:1,2010-04-04T02:00:00Z,27.1690,-82.9260,-1.0,17.47,2 
COMPS,ioos:station:USF.COMPS:C10:1,2010-04-04T02:20:00Z,27.1690,-82.9260,-1.0,17.47,2 
COMPS,ioos:station:USF.COMPS:C10:1,2010-04-04T02:40:00Z,27.1690,-82.9260,-1.0,17.37,2 
COMPS,ioos:station:USF.COMPS:C10:1,2010-04-04T03:00:00Z,27.1690,-82.9260,-1.0,17.42,2 
COMPS,ioos:station:USF.COMPS:C10:1,2010-04-04T03:20:00Z,27.1690,-82.9260,-1.0,17.76,2 
COMPS,ioos:station:USF.COMPS:C10:1,2010-04-04T03:40:00Z,27.1690,-82.9260,-1.0,17.75,2 
COMPS,ioos:station:USF.COMPS:C10:1,2010-04-04T04:00:00Z,27.1690,-82.9260,-1.0,17.63,2 
COMPS,ioos:station:USF.COMPS:C10:1,2010-04-04T04:20:00Z,27.1690,-82.9260,-1.0,17.82,2 
COMPS,ioos:station:USF.COMPS:C10:1,2010-04-04T04:40:00Z,27.1690,-82.9260,-1.0,17.57,2 
COMPS,ioos:station:USF.COMPS:C10:1,2010-04-04T05:00:00Z,27.1690,-82.9260,-1.0,17.72,2 
COMPS,ioos:station:USF.COMPS:C10:1,2010-04-04T05:20:00Z,27.1690,-82.9260,-1.0,17.58,2 
COMPS,ioos:station:USF.COMPS:C10:1,2010-04-04T05:40:00Z,27.1690,-82.9260,-1.0,18.41,2 
COMPS,ioos:station:USF.COMPS:C10:1,2010-04-04T06:00:00Z,27.1690,-82.9260,-1.0,18.61,2 
COMPS,ioos:station:USF.COMPS:C10:1,2010-04-04T06:20:00Z,27.1690,-82.9260,-1.0,18.71,2 
COMPS,ioos:station:USF.COMPS:C10:1,2010-04-04T06:40:00Z,27.1690,-82.9260,-1.0,18.75,2 
COMPS,ioos:station:USF.COMPS:C10:1,2010-04-04T07:00:00Z,27.1690,-82.9260,-1.0,18.83,2 
COMPS,ioos:station:USF.COMPS:C10:1,2010-04-04T07:20:00Z,27.1690,-82.9260,-1.0,18.87,2 
COMPS,ioos:station:USF.COMPS:C10:1,2010-04-04T07:40:00Z,27.1690,-82.9260,-1.0,18.91,2 
COMPS,ioos:station:USF.COMPS:C10:1,2010-04-04T08:00:00Z,27.1690,-82.9260,-1.0,18.9,2 
COMPS,ioos:station:USF.COMPS:C10:1,2010-04-04T08:20:00Z,27.1690,-82.9260,-1.0,18.85,2 
COMPS,ioos:station:USF.COMPS:C10:1,2010-04-04T08:40:00Z,27.1690,-82.9260,-1.0,18.82,2 
COMPS,ioos:station:USF.COMPS:C10:1,2010-04-04T09:00:00Z,27.1690,-82.9260,-1.0,18.77,2 
COMPS,ioos:station:USF.COMPS:C10:1,2010-04-04T09:20:00Z,27.1690,-82.9260,-1.0,18.76,2 
COMPS,ioos:station:USF.COMPS:C10:1,2010-04-04T09:40:00Z,27.1690,-82.9260,-1.0,18.74,2 
COMPS,ioos:station:USF.COMPS:C10:1,2010-04-04T10:00:00Z,27.1690,-82.9260,-1.0,18.73,2 
COMPS,ioos:station:USF.COMPS:C10:1,2010-04-04T10:20:00Z,27.1690,-82.9260,-1.0,18.72,2 
COMPS,ioos:station:USF.COMPS:C10:1,2010-04-04T10:40:00Z,27.1690,-82.9260,-1.0,18.72,2 
COMPS,ioos:station:USF.COMPS:C10:1,2010-04-04T11:00:00Z,27.1690,-82.9260,-1.0,18.71,2 
COMPS,ioos:station:USF.COMPS:C10:1,2010-04-04T11:20:00Z,27.1690,-82.9260,-1.0,18.69,2 
COMPS,ioos:station:USF.COMPS:C10:1,2010-04-04T11:40:00Z,27.1690,-82.9260,-1.0,18.68,2 
COMPS,ioos:station:USF.COMPS:C10:1,2010-04-04T12:00:00Z,27.1690,-82.9260,-1.0,18.64,2 
COMPS,ioos:station:USF.COMPS:C10:1,2010-04-04T12:20:00Z,27.1690,-82.9260,-1.0,18.61,2 
COMPS,ioos:station:USF.COMPS:C10:1,2010-04-04T12:40:00Z,27.1690,-82.9260,-1.0,18.59,2 
COMPS,ioos:station:USF.COMPS:C10:1,2010-04-04T13:00:00Z,27.1690,-82.9260,-1.0,18.56,2 
COMPS,ioos:station:USF.COMPS:C10:1,2010-04-04T13:20:00Z,27.1690,-82.9260,-1.0,18.52,2 
COMPS,ioos:station:USF.COMPS:C10:1,2010-04-04T13:40:00Z,27.1690,-82.9260,-1.0,18.49,2 
COMPS,ioos:station:USF.COMPS:C10:1,2010-04-04T14:00:00Z,27.1690,-82.9260,-1.0,18.47,2 
COMPS,ioos:station:USF.COMPS:C10:1,2010-04-04T14:20:00Z,27.1690,-82.9260,-1.0,18.44,2 
COMPS,ioos:station:USF.COMPS:C10:1,2010-04-04T14:40:00Z,27.1690,-82.9260,-1.0,18.42,2 
COMPS,ioos:station:USF.COMPS:C10:1,2010-04-04T15:00:00Z,27.1690,-82.9260,-1.0,18.39,2 
COMPS,ioos:station:USF.COMPS:C10:1,2010-04-04T15:20:00Z,27.1690,-82.9260,-1.0,18.35,2 
COMPS,ioos:station:USF.COMPS:C10:1,2010-04-04T15:40:00Z,27.1690,-82.9260,-1.0,18.33,2 
COMPS,ioos:station:USF.COMPS:C10:1,2010-04-04T16:00:00Z,27.1690,-82.9260,-1.0,18.28,2 
COMPS,ioos:station:USF.COMPS:C10:1,2010-04-04T16:20:00Z,27.1690,-82.9260,-1.0,18.26,2 
COMPS,ioos:station:USF.COMPS:C10:1,2010-04-04T16:40:00Z,27.1690,-82.9260,-1.0,18.23,2 
COMPS,ioos:station:USF.COMPS:C10:1,2010-04-04T17:00:00Z,27.1690,-82.9260,-1.0,18.22,2 
COMPS,ioos:station:USF.COMPS:C10:1,2010-04-04T17:20:00Z,27.1690,-82.9260,-1.0,18.22,2 
COMPS,ioos:station:USF.COMPS:C10:1,2010-04-04T17:40:00Z,27.1690,-82.9260,-1.0,18.23,2 
COMPS,ioos:station:USF.COMPS:C10:1,2010-04-04T18:00:00Z,27.1690,-82.9260,-1.0,18.23,2 
COMPS,ioos:station:USF.COMPS:C10:1,2010-04-04T18:20:00Z,27.1690,-82.9260,-1.0,18.23,2 
COMPS,ioos:station:USF.COMPS:C10:1,2010-04-04T18:40:00Z,27.1690,-82.9260,-1.0,18.22,2 
COMPS,ioos:station:USF.COMPS:C10:1,2010-04-04T19:00:00Z,27.1690,-82.9260,-1.0,18.22,2 
COMPS,ioos:station:USF.COMPS:C10:1,2010-04-04T19:20:00Z,27.1690,-82.9260,-1.0,18.24,2 
COMPS,ioos:station:USF.COMPS:C10:1,2010-04-04T19:40:00Z,27.1690,-82.9260,-1.0,18.19,2 
COMPS,ioos:station:USF.COMPS:C10:1,2010-04-04T20:00:00Z,27.1690,-82.9260,-1.0,18.21,2 
COMPS,ioos:station:USF.COMPS:C10:1,2010-04-04T20:20:00Z,27.1690,-82.9260,-1.0,18.21,2 
COMPS,ioos:station:USF.COMPS:C10:1,2010-04-04T20:40:00Z,27.1690,-82.9260,-1.0,18.21,2 
COMPS,ioos:station:USF.COMPS:C10:1,2010-04-04T21:00:00Z,27.1690,-82.9260,-1.0,18.22,2 
COMPS,ioos:station:USF.COMPS:C10:1,2010-04-04T21:20:00Z,27.1690,-82.9260,-1.0,18.28,2 
COMPS,ioos:station:USF.COMPS:C10:1,2010-04-04T21:40:00Z,27.1690,-82.9260,-1.0,18.19,2 
COMPS,ioos:station:USF.COMPS:C10:1,2010-04-04T22:00:00Z,27.1690,-82.9260,-1.0,18.2,2 
COMPS,ioos:station:USF.COMPS:C10:1,2010-04-04T22:20:00Z,27.1690,-82.9260,-1.0,18.23,2 
COMPS,ioos:station:USF.COMPS:C10:1,2010-04-04T22:40:00Z,27.1690,-82.9260,-1.0,18.36,2 
COMPS,ioos:station:USF.COMPS:C10:1,2010-04-04T23:00:00Z,27.1690,-82.9260,-1.0,18.3,2 
COMPS,ioos:station:USF.COMPS:C10:1,2010-04-04T23:20:00Z,27.1690,-82.9260,-1.0,18.16,2 
COMPS,ioos:station:USF.COMPS:C10:1,2010-04-04T23:40:00Z,27.1690,-82.9260,-1.0,18.24,2 
COMPS,ioos:station:USF.COMPS:C10:1,2010-04-05T00:20:00Z,27.1690,-82.9260,-1.0,18.11,2 
COMPS,ioos:station:USF.COMPS:C10:1,2010-04-05T00:40:00Z,27.1690,-82.9260,-1.0,18.07,2 
COMPS,ioos:station:USF.COMPS:C10:1,2010-04-05T01:00:00Z,27.1690,-82.9260,-1.0,18.14,2 
COMPS,ioos:station:USF.COMPS:C10:1,2010-04-05T01:20:00Z,27.1690,-82.9260,-1.0,17.74,2 
COMPS,ioos:station:USF.COMPS:C10:1,2010-04-05T01:40:00Z,27.1690,-82.9260,-1.0,17.91,2 
COMPS,ioos:station:USF.COMPS:C10:1,2010-04-05T02:00:00Z,27.1690,-82.9260,-1.0,17.61,2 
COMPS,ioos:station:USF.COMPS:C10:1,2010-04-05T02:20:00Z,27.1690,-82.9260,-1.0,17.89,2 
COMPS,ioos:station:USF.COMPS:C10:1,2010-04-05T02:40:00Z,27.1690,-82.9260,-1.0,18.0,2 
COMPS,ioos:station:USF.COMPS:C10:1,2010-04-05T03:00:00Z,27.1690,-82.9260,-1.0,17.61,2 
COMPS,ioos:station:USF.COMPS:C10:1,2010-04-05T03:20:00Z,27.1690,-82.9260,-1.0,18.03,2 
COMPS,ioos:station:USF.COMPS:C10:1,2010-04-05T03:40:00Z,27.1690,-82.9260,-1.0,17.93,2 
COMPS,ioos:station:USF.COMPS:C10:1,2010-04-05T04:00:00Z,27.1690,-82.9260,-1.0,18.56,2 
COMPS,ioos:station:USF.COMPS:C10:1,2010-04-05T04:20:00Z,27.1690,-82.9260,-1.0,18.73,2 
COMPS,ioos:station:USF.COMPS:C10:1,2010-04-05T04:40:00Z,27.1690,-82.9260,-1.0,18.79,2 
COMPS,ioos:station:USF.COMPS:C10:1,2010-04-05T05:00:00Z,27.1690,-82.9260,-1.0,18.96,2 
COMPS,ioos:station:USF.COMPS:C10:1,2010-04-05T05:20:00Z,27.1690,-82.9260,-1.0,18.95,2 
COMPS,ioos:station:USF.COMPS:C10:1,2010-04-05T05:40:00Z,27.1690,-82.9260,-1.0,19.01,2 
COMPS,ioos:station:USF.COMPS:C10:1,2010-04-05T06:00:00Z,27.1690,-82.9260,-1.0,18.99,2 
COMPS,ioos:station:USF.COMPS:C10:1,2010-04-05T06:20:00Z,27.1690,-82.9260,-1.0,18.99,2 
COMPS,ioos:station:USF.COMPS:C10:1,2010-04-05T06:40:00Z,27.1690,-82.9260,-1.0,18.99,2 
COMPS,ioos:station:USF.COMPS:C10:1,2010-04-05T07:00:00Z,27.1690,-82.9260,-1.0,19.03,2 
COMPS,ioos:station:USF.COMPS:C10:1,2010-04-05T07:20:00Z,27.1690,-82.9260,-1.0,19.1,2 
COMPS,ioos:station:USF.COMPS:C10:1,2010-04-05T07:40:00Z,27.1690,-82.9260,-1.0,19.18,2 
COMPS,ioos:station:USF.COMPS:C10:1,2010-04-05T08:00:00Z,27.1690,-82.9260,-1.0,19.26,2 
COMPS,ioos:station:USF.COMPS:C10:1,2010-04-05T08:20:00Z,27.1690,-82.9260,-1.0,19.29,2 
COMPS,ioos:station:USF.COMPS:C10:1,2010-04-05T08:40:00Z,27.1690,-82.9260,-1.0,19.29,2 
COMPS,ioos:station:USF.COMPS:C10:1,2010-04-05T09:00:00Z,27.1690,-82.9260,-1.0,19.28,2 
COMPS,ioos:station:USF.COMPS:C10:1,2010-04-05T09:20:00Z,27.1690,-82.9260,-1.0,19.25,2 
COMPS,ioos:station:USF.COMPS:C10:1,2010-04-05T09:40:00Z,27.1690,-82.9260,-1.0,19.21,2 
COMPS,ioos:station:USF.COMPS:C10:1,2010-04-05T10:00:00Z,27.1690,-82.9260,-1.0,19.16,2 
COMPS,ioos:station:USF.COMPS:C10:1,2010-04-05T10:20:00Z,27.1690,-82.9260,-1.0,19.1,2 
COMPS,ioos:station:USF.COMPS:C10:1,2010-04-05T10:40:00Z,27.1690,-82.9260,-1.0,19.02,2 
COMPS,ioos:station:USF.COMPS:C10:1,2010-04-05T11:00:00Z,27.1690,-82.9260,-1.0,18.98,2 
COMPS,ioos:station:USF.COMPS:C10:1,2010-04-05T11:20:00Z,27.1690,-82.9260,-1.0,18.92,2 
COMPS,ioos:station:USF.COMPS:C10:1,2010-04-05T11:40:00Z,27.1690,-82.9260,-1.0,18.87,2 
COMPS,ioos:station:USF.COMPS:C10:1,2010-04-05T12:00:00Z,27.1690,-82.9260,-1.0,18.83,2 
COMPS,ioos:station:USF.COMPS:C10:1,2010-04-05T12:20:00Z,27.1690,-82.9260,-1.0,18.81,2 
COMPS,ioos:station:USF.COMPS:C10:1,2010-04-05T12:40:00Z,27.1690,-82.9260,-1.0,18.8,2 
COMPS,ioos:station:USF.COMPS:C10:1,2010-04-05T13:00:00Z,27.1690,-82.9260,-1.0,18.82,2 
COMPS,ioos:station:USF.COMPS:C10:1,2010-04-05T13:20:00Z,27.1690,-82.9260,-1.0,18.82,2 
COMPS,ioos:station:USF.COMPS:C10:1,2010-04-05T13:40:00Z,27.1690,-82.9260,-1.0,18.77,2 
COMPS,ioos:station:USF.COMPS:C10:1,2010-04-05T14:00:00Z,27.1690,-82.9260,-1.0,18.77,2 
COMPS,ioos:station:USF.COMPS:C10:1,2010-04-05T14:20:00Z,27.1690,-82.9260,-1.0,18.77,2 
COMPS,ioos:station:USF.COMPS:C10:1,2010-04-05T14:40:00Z,27.1690,-82.9260,-1.0,18.73,2 
COMPS,ioos:station:USF.COMPS:C10:1,2010-04-05T15:00:00Z,27.1690,-82.9260,-1.0,18.67,2 
COMPS,ioos:station:USF.COMPS:C10:1,2010-04-05T15:20:00Z,27.1690,-82.9260,-1.0,18.65,2 
COMPS,ioos:station:USF.COMPS:C10:1,2010-04-05T15:40:00Z,27.1690,-82.9260,-1.0,18.63,2 
COMPS,ioos:station:USF.COMPS:C10:1,2010-04-05T16:00:00Z,27.1690,-82.9260,-1.0,18.63,2 
COMPS,ioos:station:USF.COMPS:C10:1,2010-04-05T16:20:00Z,27.1690,-82.9260,-1.0,18.57,2 
COMPS,ioos:station:USF.COMPS:C10:1,2010-04-05T16:40:00Z,27.1690,-82.9260,-1.0,18.55,2 
COMPS,ioos:station:USF.COMPS:C10:1,2010-04-05T17:00:00Z,27.1690,-82.9260,-1.0,18.55,2 
COMPS,ioos:station:USF.COMPS:C10:1,2010-04-05T17:20:00Z,27.1690,-82.9260,-1.0,18.52,2 
COMPS,ioos:station:USF.COMPS:C10:1,2010-04-05T17:40:00Z,27.1690,-82.9260,-1.0,18.49,2 
COMPS,ioos:station:USF.COMPS:C10:1,2010-04-05T18:00:00Z,27.1690,-82.9260,-1.0,18.49,2 
COMPS,ioos:station:USF.COMPS:C10:1,2010-04-05T18:20:00Z,27.1690,-82.9260,-1.0,18.53,2 
COMPS,ioos:station:USF.COMPS:C10:1,2010-04-05T18:40:00Z,27.1690,-82.9260,-1.0,18.49,2 
COMPS,ioos:station:USF.COMPS:C10:1,2010-04-05T19:00:00Z,27.1690,-82.9260,-1.0,18.45,2 
COMPS,ioos:station:USF.COMPS:C10:1,2010-04-05T19:20:00Z,27.1690,-82.9260,-1.0,18.47,2 
COMPS,ioos:station:USF.COMPS:C10:1,2010-04-05T19:40:00Z,27.1690,-82.9260,-1.0,18.45,2 
COMPS,ioos:station:USF.COMPS:C10:1,2010-04-05T20:00:00Z,27.1690,-82.9260,-1.0,18.52,2 
COMPS,ioos:station:USF.COMPS:C10:1,2010-04-05T20:20:00Z,27.1690,-82.9260,-1.0,18.53,2 
COMPS,ioos:station:USF.COMPS:C10:1,2010-04-05T20:40:00Z,27.1690,-82.9260,-1.0,18.49,2 
COMPS,ioos:station:USF.COMPS:C10:1,2010-04-05T21:00:00Z,27.1690,-82.9260,-1.0,18.55,2 
COMPS,ioos:station:USF.COMPS:C10:1,2010-04-05T21:20:00Z,27.1690,-82.9260,-1.0,18.54,2 
COMPS,ioos:station:USF.COMPS:C10:1,2010-04-05T21:40:00Z,27.1690,-82.9260,-1.0,18.6,2 
COMPS,ioos:station:USF.COMPS:C10:1,2010-04-05T22:00:00Z,27.1690,-82.9260,-1.0,18.57,2 
COMPS,ioos:station:USF.COMPS:C10:1,2010-04-05T22:20:00Z,27.1690,-82.9260,-1.0,18.65,2 
COMPS,ioos:station:USF.COMPS:C10:1,2010-04-05T22:40:00Z,27.1690,-82.9260,-1.0,18.66,2 
COMPS,ioos:station:USF.COMPS:C10:1,2010-04-05T23:00:00Z,27.1690,-82.9260,-1.0,18.67,2 
COMPS,ioos:station:USF.COMPS:C10:1,2010-04-05T23:20:00Z,27.1690,-82.9260,-1.0,18.67,2 
COMPS,ioos:station:USF.COMPS:C10:1,2010-04-05T23:40:00Z,27.1690,-82.9260,-1.0,18.67,2 
COMPS,ioos:station:USF.COMPS:C10:1,2010-04-06T00:00:00Z,27.1690,-82.9260,-1.0,18.68,2 
COMPS,ioos:station:USF.COMPS:C10:1,2010-04-06T00:20:00Z,27.1690,-82.9260,-1.0,18.65,2 
COMPS,ioos:station:USF.COMPS:C10:1,2010-04-06T00:40:00Z,27.1690,-82.9260,-1.0,18.58,2 
COMPS,ioos:station:USF.COMPS:C10:1,2010-04-06T01:00:00Z,27.1690,-82.9260,-1.0,18.6,2 
COMPS,ioos:station:USF.COMPS:C10:1,2010-04-06T01:20:00Z,27.1690,-82.9260,-1.0,18.57,2 
COMPS,ioos:station:USF.COMPS:C10:1,2010-04-06T01:40:00Z,27.1690,-82.9260,-1.0,18.57,2 
COMPS,ioos:station:USF.COMPS:C10:1,2010-04-06T02:00:00Z,27.1690,-82.9260,-1.0,18.52,2 
COMPS,ioos:station:USF.COMPS:C10:1,2010-04-06T02:20:00Z,27.1690,-82.9260,-1.0,18.49,2 
COMPS,ioos:station:USF.COMPS:C10:1,2010-04-06T02:40:00Z,27.1690,-82.9260,-1.0,18.33,2 
COMPS,ioos:station:USF.COMPS:C10:1,2010-04-06T03:00:00Z,27.1690,-82.9260,-1.0,18.14,2 
COMPS,ioos:station:USF.COMPS:C10:1,2010-04-06T03:20:00Z,27.1690,-82.9260,-1.0,18.13,2 
COMPS,ioos:station:USF.COMPS:C10:1,2010-04-06T03:40:00Z,27.1690,-82.9260,-1.0,18.74,2 
COMPS,ioos:station:USF.COMPS:C10:1,2010-04-06T04:00:00Z,27.1690,-82.9260,-1.0,18.83,2 
COMPS,ioos:station:USF.COMPS:C10:1,2010-04-06T04:20:00Z,27.1690,-82.9260,-1.0,18.88,2 
COMPS,ioos:station:USF.COMPS:C10:1,2010-04-06T04:40:00Z,27.1690,-82.9260,-1.0,19.12,2 
COMPS,ioos:station:USF.COMPS:C10:1,2010-04-06T05:00:00Z,27.1690,-82.9260,-1.0,19.21,2 
COMPS,ioos:station:USF.COMPS:C10:1,2010-04-06T05:20:00Z,27.1690,-82.9260,-1.0,19.33,2 
COMPS,ioos:station:USF.COMPS:C10:1,2010-04-06T05:40:00Z,27.1690,-82.9260,-1.0,19.38,2 
COMPS,ioos:station:USF.COMPS:C10:1,2010-04-06T06:00:00Z,27.1690,-82.9260,-1.0,19.41,2 
COMPS,ioos:station:USF.COMPS:C10:1,2010-04-06T06:20:00Z,27.1690,-82.9260,-1.0,19.46,2 
COMPS,ioos:station:USF.COMPS:C10:1,2010-04-06T06:40:00Z,27.1690,-82.9260,-1.0,19.51,2 
COMPS,ioos:station:USF.COMPS:C10:1,2010-04-06T07:00:00Z,27.1690,-82.9260,-1.0,19.53,2 
COMPS,ioos:station:USF.COMPS:C10:1,2010-04-06T07:20:00Z,27.1690,-82.9260,-1.0,19.58,2 
COMPS,ioos:station:USF.COMPS:C10:1,2010-04-06T07:40:00Z,27.1690,-82.9260,-1.0,19.58,2 
COMPS,ioos:station:USF.COMPS:C10:1,2010-04-06T08:00:00Z,27.1690,-82.9260,-1.0,19.59,2 
COMPS,ioos:station:USF.COMPS:C10:1,2010-04-06T08:20:00Z,27.1690,-82.9260,-1.0,19.6,2 
COMPS,ioos:station:USF.COMPS:C10:1,2010-04-06T08:40:00Z,27.1690,-82.9260,-1.0,19.61,2 
COMPS,ioos:station:USF.COMPS:C10:1,2010-04-06T09:00:00Z,27.1690,-82.9260,-1.0,19.59,2 
COMPS,ioos:station:USF.COMPS:C10:1,2010-04-06T09:20:00Z,27.1690,-82.9260,-1.0,19.59,2 
COMPS,ioos:station:USF.COMPS:C10:1,2010-04-06T09:40:00Z,27.1690,-82.9260,-1.0,19.55,2 
COMPS,ioos:station:USF.COMPS:C10:1,2010-04-06T10:00:00Z,27.1690,-82.9260,-1.0,19.54,2 
COMPS,ioos:station:USF.COMPS:C10:1,2010-04-06T10:20:00Z,27.1690,-82.9260,-1.0,19.51,2 
COMPS,ioos:station:USF.COMPS:C10:1,2010-04-06T10:40:00Z,27.1690,-82.9260,-1.0,19.5,2 